Regional Weather Roundup
Issued by NWS

Home | Current Version | Previous Version | Graphics & Text | Print | Product List | Glossary Off
Versions: 1 2 3 4 5 6 7 8 9 10 11 12 13 14 15 16 17 18 19 20 21 22 23 24 25 26 27 28 29 30 31 32 33 34 35 36 37 38 39 40 41 42 43 44 45 46 47 48 49 50

000
ASUS43 KMKX 080300
RWRWI

WISCONSIN REGIONAL WEATHER ROUNDUP
NATIONAL WEATHER SERVICE MILWAUKEE/SULLIVAN WI
900 PM CST SUN FEB 07 2016

NOTE: "FAIR" INDICATES FEW OR NO CLOUDS BELOW 12,000 FEET WITH NO
SIGNIFICANT WEATHER AND/OR OBSTRUCTIONS TO VISIBILITY.

WIZ001-002-006>008-014>016-023>028-080400-
NORTHWEST WISCONSIN

CITY           SKY/WX    TMP DP  RH WIND       PRES   REMARKS
SUPERIOR ARPT  FLURRIES  26  21  80 NW15G25   29.65R WCI  14
ASHLAND        LGT SNOW  30  28  92 W13       29.55S FOG     WCI  20
HAYWARD        LGT SNOW  26  22  84 VRB7G18   29.59R FOG     WCI  18
SIREN          LGT SNOW  23  18  80 NW14G20   29.67R WCI  11
CUMBERLAND     LGT SNOW  25  21  86 W17G23    29.62R WCI  11
RICE LAKE      LGT SNOW  27  23  85 W18       29.64R WCI  14
CHETEK         LGT SNOW  27  24  89 NW7       29.62R WCI  19
LADYSMITH      LGT SNOW  30  27  86 NW16G22   29.59R WCI  19
EAU CLAIRE     LGT SNOW  28  23  81 NW16G25   29.64R WCI  16
MENOMONIE      LGT SNOW  28  23  81 W21G31    29.66R WCI  15
NEW RICHMOND   LGT SNOW  22  18  85 W18G25    29.69R WCI   8
OSCEOLA        LGT SNOW  22  18  83 W18G24    29.73R WCI   8
$$

WIZ003>005-009-010-017-018-080400-
NORTH CENTRAL WISCONSIN

CITY           SKY/WX    TMP DP  RH WIND       PRES   REMARKS
MANITOWISH WTR LGT SNOW  31  31 100 S5        29.50S WCI  26
ARBOR VITAE    LGT SNOW  32  31  96 SW5       29.51S WCI  27
WOODRUFF       LGT SNOW  32  31  96 SW5       29.51S WCI  27
RHINELANDER    LGT SNOW  32  29  88 SW6       29.52F FOG     WCI  26
EAGLE RIVER    CLOUDY    32  30  95 SW6       29.51S WCI  26
LAND O LAKES   LGT SNOW  32  32  99 CALM      29.51S
PHILLIPS       LGT SNOW  31  31  99 SW6       29.51F WCI  26
TOMAHAWK       FLURRIES  31  28  90 CALM      29.54F
MEDFORD        LGT SNOW  32  31  96 SW8       29.54F WCI  25
MERRILL        LGT SNOW  33  29  84 W8        29.56S WCI  27
$$

WIZ029-030-035-036-043>047-080400-
CENTRAL WISCONSIN

CITY           SKY/WX    TMP DP  RH WIND       PRES   REMARKS
WAUSAU         CLOUDY    36  26  67 SW9       29.54F WCI  29
MOSINEE        CLOUDY    34  28  80 SW12      29.57F WCI  25
MARSHFIELD     CLOUDY    35  27  72 SW12      29.56F WCI  27
STEVENS POINT  CLOUDY    34  25  68 SW8       29.58F WCI  27
WAUPACA        CLOUDY    38  28  67 S7        29.60F WCI  32
WAUTOMA        NOT AVBL
WISC RAPIDS    CLOUDY    36  25  64 W8        29.60F WCI  30
CAMP DOUGLAS   NOT AVBL
$$

WIZ011>013-019>022-031-037>040-048>050-080400-
NORTHEAST WISCONSIN

CITY           SKY/WX    TMP DP  RH WIND       PRES   REMARKS
ANTIGO         MOCLDY    32  26  80 SW7       29.54F WCI  26
SHAWANO        CLOUDY    39  28  63 SW7       29.58F WCI  34
OCONTO         CLOUDY    37  30  78 SW5       29.58F WCI  33
STURGEON BAY   CLOUDY    36  28  75 S8        29.61F WCI  29
GREEN BAY      CLOUDY    37  28  70 S6        29.60F WCI  32
MANITOWOC      NOT AVBL
APPLETON       MOCLDY    36  25  64 S9        29.58F WCI  29
CLINTONVILLE   CLOUDY    36  27  69 SW8       29.59F WCI  29
OSHKOSH        CLOUDY    36  26  67 VRB6      29.61F WCI  31
$$

WIZ032>034-041-042-053>061-080400-
SOUTHWEST WISCONSIN

CITY           SKY/WX    TMP DP  RH WIND       PRES   REMARKS
LA CROSSE      CLOUDY    36  30  79 W12       29.64F WCI  28
SPARTA         CLOUDY    36  31  83 W8        29.64F WCI  29
VIROQUA        CLOUDY    34  31  89 W12       29.63F WCI  25
BOSCOBEL       CLOUDY    37  31  78 SW10      29.68F WCI  30
PRAIRIE DU CHI CLOUDY    35  29  78 SW10      29.70F WCI  27
PLATTEVILLE    CLOUDY    34  30  86 SW10      29.70F WCI  26
$$

WIZ056-057-062-063-064-067-068-080400-
SOUTH CENTRAL WISCONSIN

CITY           SKY/WX    TMP DP  RH WIND       PRES   REMARKS
REEDSBURG      CLOUDY    35  28  76 SW10      29.64F WCI  27
BARABOO/DELLS  CLOUDY    35  27  74 SW9       29.64S WCI  28
LONE ROCK      NOT AVBL
MINERAL POINT  CLOUDY    34  30  86 SW9       29.67F WCI  26
MADISON        MOCLDY    33  27  78 VRB6      29.66F WCI  28
MIDDLETON      PTCLDY    35  28  76 SW10      29.67F WCI  27
WATERTOWN      PTCLDY    33  28  81 SW8       29.66F WCI  26
MONROE         CLEAR     32  30  93 SW14      29.68F WCI  22
JANESVILLE     PTCLDY    36  28  75 MISG      29.70F
$$

WIZ051-052-058>065-066-070>072-080400-
SOUTHEAST WISCONSIN

CITY           SKY/WX    TMP DP  RH WIND       PRES   REMARKS
MILWAUKEE      PTCLDY    36  26  67 W10       29.67F WCI  28
WAUKESHA       CLEAR     32  27  80 SW12      29.68S WCI  23
MILWAUKEE/TIMM CLEAR     36  25  64 W12       29.67  WCI  27
RACINE         CLEAR     36  26  67 W13       29.69F WCI  27
BURLINGTON     CLEAR     32  26  78 W7        29.69F WCI  26
KENOSHA        CLEAR     35  27  72 W14       29.69S WCI  26
FOND DU LAC    CLOUDY    35  26  69 SW7       29.63F WCI  29
SHEBOYGAN      PTCLDY    32  26  78 SW8       29.63F WCI  25
WEST BEND      PTCLDY    34  27  75 W10       29.65S WCI  26
JUNEAU         CLOUDY    32  26  78 SW8       29.66F WCI  25
$$

LSZ147-162-080400-
LAKE SUPERIOR

STATION/POSITION TIME  TEMP    WIND        PRES    WAVE
                       AIR SEA DIR/SP/G            HT/PER
                 (UTC) (F)     (DEG/KT/KT) (MB)    (FT/S)
DEVILS ISLAND    0200   31      30/ 27/ 32 1000.7R
PORT WING        0224   31     320/ 19/ 25 1002.0R
SAXON HARBOR     0200   33                 1000.0S
$$

LMZ867-665-643>646-080400-
LAKE MICHIGAN

STATION/POSITION TIME  TEMP    WIND        PRES    WAVE
                       AIR SEA DIR/SP/G            HT/PER
                 (UTC) (F)     (DEG/KT/KT) (MB)    (FT/S)
CHAMBERS ISLAND  0200   35     170/  4/  8 1002.4F
NORTHPORT PIER   0200   37      CALM  /  4 1002.4S
KEWAUNEE LAKESHO 0200   38                 1002.3F
SHEBOYGAN LAKESH 0200   37     230/  9/ 11 1004.7S
PORT WASHINGTON  0200   37     250/  6/ 10 1005.4F
MILWAUKEE LAKESH 0210   38     250/ 13/ 15   N/A
KENOSHA   LAKESH 0200   38     260/ 14/ 18 1005.8F
$$

TC  - TEMPERATURE IN CELSIUS
VSB - VISIBILITY IN STATUTE MILES
WCI - WIND CHILL INDEX
HX  - HEAT INDEX




USA.gov is the U.S. government's official web portal to all federal, state and local government web resources and services.